[Iaude] MPEC F32: 2015 BF518 [a=25.33,e=0.32,i=15.0,H=9.9]

mpec at mpcdb1.cfa.harvard.edu mpec at mpcdb1.cfa.harvard.edu
Mon Mar 18 22:57:16 EDT 2019


M.P.E.C. 2019-F32                                Issued 2019 Mar. 19, 02:53 UT
 
     The Minor Planet Electronic Circulars contain information on unusual
         minor planets and routine data on comets.  They are published
    on behalf of Division F of the International Astronomical Union by the
          Minor Planet Center, Smithsonian Astrophysical Observatory,
                          Cambridge, MA 02138, U.S.A.

             Prepared using the Tamkin Foundation Computer Network

                              MPC at CFA.HARVARD.EDU
            URL https://www.minorplanetcenter.net/    ISSN 1523-6714


                                  2015 BF518
 
Additional Observations:
     K15Bp8F KC2012 01 05.49620 08 37 32.351+02 21 11.10         22.5 GVEF032F51
     K15Bp8F  C2012 01 24.35525 08 34 40.718+02 27 36.68         23.0 GVEF032F51
     K15Bp8F  C2012 01 24.35792 08 34 40.697+02 27 36.81         22.7 GVEF032F51
     K15Bp8F  C2012 01 24.36921 08 34 40.581+02 27 36.86         23.4 GVEF032F51
     K15Bp8F  C2012 01 24.37187 08 34 40.561+02 27 36.81         22.1 GVEF032F51
     K15Bp8F  C2012 01 24.38319 08 34 40.460+02 27 37.54         22.6 GVEF032F51
     K15Bp8F  C2012 01 24.38583 08 34 40.420+02 27 37.46         22.5 GVEF032F51
     K15Bp8F  C2012 01 24.39720 08 34 40.322+02 27 37.89         23.0 GVEF032F51
     K15Bp8F  C2012 01 24.39986 08 34 40.296+02 27 37.93         22.0 GVEF032F51
     K15Bp8F KC2012 11 30.62685 08 59 08.148+01 11 15.62         22.9 GVEF032F51
     K15Bp8F  C2013 01 18.48796 08 53 54.416+01 06 29.75         22.2 GVEF032F51
     K15Bp8F  C2013 01 18.50234 08 53 54.253+01 06 30.04         22.7 GVEF032F51
     K15Bp8F  C2013 01 18.51673 08 53 54.121+01 06 30.49         22.9 GVEF032F51
     K15Bp8F KC2014 01 09.56271 09 14 17.325-00 18 31.45         23.0 GVEF032F51
     K15Bp8F KC2014 01 11.48020 09 14 01.670-00 18 07.39         22.5 GVEF032F51
     K15Bp8F KC2014 01 31.46472 09 11 01.063-00 09 18.97         23.3 GVEF032F51
     K15Bp8F KC2014 02 20.39613 09 07 53.398+00 06 26.93         22.3 GVEF032F51
     K15Bp8F KC2014 02 28.36539 09 06 43.862+00 14 06.23         22.7 GVEF032F51
     K15Bp8F KC2014 03 24.29717 09 03 59.488+00 39 00.39         22.9 GVEF032F51
     K15Bp8F KC2014 04 24.25021 09 02 52.030+01 08 04.31         22.8 GVEF032F51
     K15Bp8F KC2014 12 16.59664 09 36 13.896-01 39 52.22         23.5 GVEF032F51
     K15Bp8F KC2015 02 27.37880 09 26 37.281-01 12 34.59         22.4 GVEF032F51
     K15Bp8F KC2015 10 22.64586 09 53 18.128-02 07 45.07         21.4 GVEF032F51
     K15Bp8F KC2015 10 23.65105 09 53 26.500-02 09 09.62         21.2 GVEF032F51
     K15Bp8F KC2015 10 25.65321 09 53 42.651-02 11 56.76         21.3 GVEF032F51
     K15Bp8F KC2015 12 05.60620 09 56 24.590-02 57 50.11         23.4 GVEF032F51
     K15Bp8F KC2015 12 06.56137 09 56 24.296-02 58 33.88         22.5 GVEF032F51
     K15Bp8F  C2015 12 08.60082 09 56 22.944-03 00 03.10         22.4 GVEF032F51
     K15Bp8F  C2015 12 08.61341 09 56 22.927-03 00 03.61         22.5 GVEF032F51
     K15Bp8F  C2015 12 08.62598 09 56 22.913-03 00 04.07         22.2 GVEF032F51
     K15Bp8F  C2015 12 08.63858 09 56 22.897-03 00 04.65         22.4 GVEF032F51
     K15Bp8F  C2015 12 13.57769 09 56 16.071-03 03 17.71         22.3 GVEF032F51
     K15Bp8F  C2015 12 13.59045 09 56 16.027-03 03 18.00         22.7 GVEF032F51
     K15Bp8F  C2015 12 13.60322 09 56 16.009-03 03 18.66         22.8 GVEF032F51
     K15Bp8F  C2015 12 13.61603 09 56 15.973-03 03 18.84         22.0 GVEF032F51
     K15Bp8F KC2015 12 24.54604 09 55 43.361-03 08 25.30         22.0 GVEF032F51
     K15Bp8F  C2016 01 11.52390 09 54 02.666-03 10 27.66         22.7 GVEF032F51
     K15Bp8F  C2016 01 11.53590 09 54 02.576-03 10 27.36         23.0 GVEF032F51
     K15Bp8F  C2016 01 11.54788 09 54 02.470-03 10 27.40         22.8 GVEF032F51
     K15Bp8F  C2016 01 11.55988 09 54 02.416-03 10 27.36         23.0 GVEF032F51
     K15Bp8F  C2016 01 12.48617 09 53 55.850-03 10 20.72         22.7 GVEF032F51
     K15Bp8F  C2016 01 12.49741 09 53 55.773-03 10 20.52         22.2 GVEF032F51
     K15Bp8F  C2016 01 12.50861 09 53 55.681-03 10 20.29         22.6 GVEF032F51
     K15Bp8F  C2016 01 12.51987 09 53 55.590-03 10 20.34         22.3 GVEF032F51
     K15Bp8F  C2016 01 21.49996 09 52 46.113-03 08 06.47         22.7 GVEF032F51
     K15Bp8F KC2016 01 21.51047 09 52 46.016-03 08 06.98         22.3 GVEF032F51
     K15Bp8F  C2016 01 31.44327 09 51 19.510-03 03 27.99         22.8 GVEF032F51
     K15Bp8F  C2016 01 31.45395 09 51 19.390-03 03 27.53         23.3 GVEF032F51
     K15Bp8F  C2016 01 31.46465 09 51 19.300-03 03 27.26         22.6 GVEF032F51
     K15Bp8F  C2016 03 04.34765 09 46 11.074-02 34 42.80         22.5 GVEF032F51
     K15Bp8F  C2016 03 04.36119 09 46 10.955-02 34 42.02         22.4 GVEF032F51
     K15Bp8F  C2016 03 04.37469 09 46 10.832-02 34 41.00         22.3 GVEF032F51
     K15Bp8F  C2016 03 04.38825 09 46 10.700-02 34 40.11         23.0 GVEF032F51
     K15Bp8F  C2016 03 31.31041 09 42 53.470-02 03 32.75         22.3 GVEF032F51
     K15Bp8F  C2016 03 31.32122 09 42 53.406-02 03 31.91         22.7 GVEF032F51
     K15Bp8F  C2016 03 31.33165 09 42 53.343-02 03 31.00         22.4 GVEF032F51
     K15Bp8F  C2016 03 31.34205 09 42 53.295-02 03 30.55         22.4 GVEF032F51
     K15Bp8F  C2017 01 04.52762 10 15 31.268-04 38 29.34         22.1 GVEF032F51
     K15Bp8F  C2017 01 04.54005 10 15 31.212-04 38 29.63         23.0 GVEF032F51
     K15Bp8F  C2017 01 04.55245 10 15 31.160-04 38 29.38         22.7 GVEF032F51
     K15Bp8F  C2017 01 04.56485 10 15 31.089-04 38 29.73         22.6 GVEF032F51
     K15Bp8F  C2017 01 29.54285 10 12 34.510-04 33 34.33         22.5 GVEF032F51
     K15Bp8F  C2017 01 29.55594 10 12 34.377-04 33 34.05         22.1 GVEF032F51
     K15Bp8F  C2017 01 29.58215 10 12 34.146-04 33 33.30         22.7 GVEF032F51
     K15Bp8F  C2017 03 18.38752 10 05 17.118-03 48 34.00         21.8 GVEF032F51
     K15Bp8F  C2017 03 18.40073 10 05 17.002-03 48 33.11         21.8 GVEF032F51
     K15Bp8F  C2017 03 18.41393 10 05 16.899-03 48 32.17         22.5 GVEF032F51
     K15Bp8F  C2017 03 18.42716 10 05 16.787-03 48 31.10         22.4 GVEF032F51
     K15Bp8F KC2017 05 10.29180 10 01 58.297-02 50 41.95         22.5 GVEF032F51
 
Observer details:
F51 Pan-STARRS 1, Haleakala.  Observers J. Bulger, K. Chambers, B. Gibson,
    T. Goggia, T. Lowe, E. Magnier, N. Primak, A. Schultz, J. Thiel,
    S. Watters, M. Willman.  Measurers S. Chastel, M. Huber, R. Jedicke,
    R. Wainscoat, R. Weryk.  1.8-m Ritchey-Chretien + CCD.
 
Orbital elements:
2015 BF518
Epoch 2019 Apr. 27.0 TT = JDT 2458600.5                 MPC
M 348.47910              (2000.0)            P               Q
n   0.00772966     Peri.  326.68224     -0.97255524     +0.15157031
a  25.3335271      Node   223.15982     -0.11289393     -0.97081705
e   0.3172236      Incl.   14.95563     -0.20344843     -0.18585126
P 127.51           H    9.9           G   0.15           U   1
Residuals in seconds of arc
120105 F51  0.5-  0.3+    150121 F51  0.2-  0.2+    160112 F51  0.0   0.2-
120124 F51  0.0   0.0     150227 F51  0.0   0.1+    160121 F51  0.0   1.1+
120124 F51  0.1+  0.1+    150318 F51  0.2+  0.1-    160121 F51  0.1-  0.3+
120124 F51  0.0   0.2-    150318 F51  0.1+  0.2-    160131 F51  0.0   0.0
120124 F51  0.0   0.4-    150318 F51  0.0   0.2-    160131 F51  0.3-  0.1+
120124 F51  0.2+  0.0     150318 F51  0.2+  0.1-    160131 F51  0.1-  0.0
120124 F51  0.0   0.1-    151022 F51  0.2+  0.0     160304 F51  0.0   0.0
120124 F51  0.1+  0.0     151023 F51  0.2+  0.0     160304 F51  0.0   0.1-
120124 F51  0.1+  0.1-    151025 F51  0.1+  0.2-    160304 F51  0.0   0.0
121130 F51  0.1+  0.0     151205 F51  0.1-  0.1+    160304 F51  0.1-  0.0
130118 F51  0.3+  0.0     151206 F51  0.3+  0.0     160331 F51  0.0   0.1-
130118 F51  0.1-  0.0     151208 F51  0.1+  0.1-    160331 F51  0.0   0.0
130118 F51  0.1-  0.1+    151208 F51  0.0   0.0     160331 F51  0.1-  0.1+
140109 F51  0.1-  0.2+    151208 F51  0.0   0.0     160331 F51  0.0   0.1-
140111 F51  0.2+  0.0     151208 F51  0.0   0.0     170104 F51  0.3-  0.0
140131 F51  0.2-  0.2+    151213 F51  0.1+  0.0     170104 F51  0.1-  0.2-
140220 F51  0.0   0.1-    151213 F51  0.2-  0.1+    170104 F51  0.1+  0.2+
140228 F51  0.1-  0.3-    151213 F51  0.0   0.1-    170104 F51  0.0   0.1-
140324 F51  0.4-  0.2+    151213 F51  0.2-  0.2+    170129 F51  0.1+  0.0
140424 F51  0.1-  0.2+    151224 F51  0.1+  0.1-    170129 F51  0.1-  0.1-
141216 F51  0.1+  0.2-    160111 F51  0.0   0.1-    170129 F51  0.1-  0.1-
150119 F51  0.1+  0.2+    160111 F51  0.0   0.1+    170318 F51  0.1+  0.0
150119 F51  0.1-  0.1+    160111 F51  0.3-  0.0     170318 F51  0.0   0.1-
150119 F51  0.0   0.1+    160111 F51  0.2+  0.0     170318 F51  0.1+  0.1-
150121 F51  0.0   0.0     160112 F51  0.2+  0.3-    170318 F51  0.0   0.0
150121 F51  0.1+  0.0     160112 F51  0.2+  0.2-    170510 F51  0.0   0.0
150121 F51  0.0   0.0     160112 F51  0.1+  0.0

Ephemeris:
2015 BF518               a,e,i = 25.33, 0.32, 15                 q = 17.297
Date    TT    R. A. (2000) Decl.     Delta      r     Elong.  Phase     V
2019 02 17    10 53 59.9 -07 21 02  16.7618 17.6703   156.2     1.3    22.4
...
2019 03 04    10 51 38.2 -07 06 48  16.6994 17.6633   166.1     0.8    22.4
...
2019 03 12    10 50 22.0 -06 57 43  16.6936 17.6596   166.1     0.8    22.4
...
2019 03 18    10 49 26.5 -06 50 25  16.7019 17.6569   163.2     0.9    22.4
2019 03 19    10 49 17.4 -06 49 10  16.7043 17.6564   162.6     1.0    22.4
2019 03 20    10 49 08.5 -06 47 54  16.7070 17.6559   161.9     1.0    22.4
...
2019 03 26    10 48 16.3 -06 40 14  16.7293 17.6532   157.2     1.3    22.4
...
2019 04 03    10 47 12.3 -06 29 48  16.7747 17.6495   150.2     1.6    22.5
...
2019 04 18    10 45 35.8 -06 10 29  16.9042 17.6427   136.2     2.3    22.5

A. U. Tomatic                (C) Copyright 2019 MPC           M.P.E.C. 2019-F32



More information about the Iaude mailing list